Tracking 19575 objects as of 19-Feb-2019
HD Live streaming from Space Station
objects crossing your sky now

AMOS 2

Track AMOS 2 now!
AMOS 2 is classified as:


NORAD ID: 28132
Int'l Code: 2003-059A
Perigee: 36,028.3 km
Apogee: 36,051.4 km
Inclination: 2.1 °
Period: 1,448.7 minutes
Semi major axis: 42410 km
RCS: 36.2156 m2 (large)
Launch date: December 27, 2003
Source: Israel (ISRA)
Launch site: TYURATAM MISSILE AND SPACE COMPLEX (TTMTR)

Ku-band communications, Europe, Middle East, East Coast of USA.
aabbcc
Your satellite tracking list
Your tracking list is empty




NASA's NSSDC Master Catalog

Two Line Element Set (TLE):
1 28132U 03059A   19049.85529344 -.00000216 +00000-0 +00000-0 0  9996
2 28132 002.0612 087.2464 0002719 247.9608 110.8982 00.99400170055442
Source of the keplerian elements: AFSPC